Memphis, TN

4:39 PM CST on January 22, 2017 (GMT -0600)
Memphis International

Weather History for KMEM - December, 2012

Change the Weather History Date:

Saturday, December 15, 2012

  Actual Average Record
Temperature  
Mean Temperature 58 °F 43 °F  
Max Temperature 64 °F 52 °F 75 °F (1984)
Min Temperature 51 °F 35 °F 2 °F (1901)
Degree Days  
Heating Degree Days 7 22  
Month to date heating degree days 141 299  
Since 1 July heating degree days 698 798  
Cooling Degree Days 0 0  
Month to date cooling degree days 4 0  
Year to date cooling degree days 2617 2256  
Growing Degree Days 8 (Base 50)    
Moisture  
Dew Point 53 °F    
Average Humidity 82    
Maximum Humidity 86    
Minimum Humidity 78    
Precipitation  
Precipitation 0.12 in 0.18 in 3.33 in (1892)
Month to date precipitation 1.57 2.95  
Year to date precipitation 34.74 50.89  
Snow  
Snow 0.00 in 0.00 in 5.00 in (1916)
Month to date snowfall 0.0 0.0  
Since 1 July snowfall 0.0 T  
Snow Depth 0.00 in    
Sea Level Pressure  
Sea Level Pressure 29.90 in    
Wind  
Wind Speed 14 mph (South)    
Max Wind Speed 25 mph    
Max Gust Speed 35 mph    
Visibility 10 miles    
Events Rain    
T = Trace of Precipitation, MM = Missing Value Source: NWS Daily Summary

Daily Weather History Graph

Daily Weather History Graph

Search for Another Location

Airport or City:

Trip Planner

Search our weather history database for the weather conditions in past years. The results will help you decide how hot, cold, wet, or windy it might be!

Date:

Astronomy

Dec. 15, 2012 Rise Set
Actual Time 7:00 AM CST 4:49 PM CST
Civil Twilight 6:32 AM CST 5:17 PM CST
Nautical Twilight 6:01 AM CST 5:49 PM CST
Astronomical Twilight 5:30 AM CST 6:20 PM CST
Moon 8:57 AM CST (12/15) 7:49 PM CST (12/15)
Length of Visible Light 10h 45m
Length of Day
9h 48m
Waxing Crescent, 8% of the Moon is Illuminated
Dec 15
Waxing Crescent
Dec 19
First Quarter
Dec 28
Full
Jan 4
Last Quarter
Jan 11
New

Hourly Weather History & Observations

Time (CST) Temp. Dew Point Humidity Pressure Visibility Wind Dir Wind Speed Gust Speed Precip Events Conditions
12:54 AM 51.1 °F 46.9 °F 86% 30.04 in 10.0 mi SE 8.1 mph - 0.06 in   Overcast
1:54 AM 51.1 °F 46.9 °F 86% 30.04 in 10.0 mi SSE 10.4 mph - N/A   Mostly Cloudy
2:54 AM 51.1 °F 46.9 °F 86% 30.04 in 10.0 mi SSE 10.4 mph - N/A   Overcast
3:54 AM 52.0 °F 46.0 °F 80% 30.02 in 10.0 mi SSE 11.5 mph - N/A   Overcast
4:54 AM 52.0 °F 46.0 °F 80% 29.96 in 10.0 mi SE 15.0 mph - 0.00 in   Mostly Cloudy
5:42 AM 51.8 °F 46.4 °F 82% 29.98 in 10.0 mi South 13.8 mph 24.2 mph N/A   Overcast
5:54 AM 53.1 °F 46.9 °F 80% 29.98 in 10.0 mi South 11.5 mph - 0.00 in Rain Light Rain
6:04 AM 53.6 °F 46.4 °F 77% 29.97 in 9.0 mi SSE 16.1 mph - 0.00 in Rain Light Rain
6:54 AM 53.1 °F 48.0 °F 83% 29.96 in 5.0 mi SSE 16.1 mph 23.0 mph 0.00 in Rain Light Rain
7:54 AM 54.0 °F 48.9 °F 83% 29.96 in 10.0 mi South 20.7 mph 29.9 mph 0.01 in   Overcast
7:58 AM 53.6 °F 48.2 °F 82% 29.95 in 10.0 mi South 19.6 mph 29.9 mph N/A   Overcast
8:54 AM 55.9 °F 50.0 °F 80% 29.95 in 10.0 mi South 19.6 mph 26.5 mph N/A   Overcast
9:54 AM 55.9 °F 52.0 °F 87% 29.95 in 9.0 mi South 17.3 mph 26.5 mph 0.01 in Rain Light Rain
10:54 AM 57.0 °F 53.1 °F 87% 29.92 in 10.0 mi South 13.8 mph - 0.04 in   Overcast
11:30 AM 57.2 °F 53.6 °F 88% 29.91 in 10.0 mi South 19.6 mph 25.3 mph N/A   Overcast
11:54 AM 57.9 °F 54.0 °F 87% 29.89 in 10.0 mi South 18.4 mph 27.6 mph N/A   Overcast
12:26 PM 60.8 °F 55.4 °F 82% 29.85 in 10.0 mi South 23.0 mph 31.1 mph N/A   Overcast
12:54 PM 60.1 °F 55.0 °F 83% 29.85 in 10.0 mi South 19.6 mph - N/A   Overcast
1:54 PM 62.1 °F 55.9 °F 80% 29.84 in 10.0 mi South 17.3 mph 24.2 mph N/A   Overcast
2:54 PM 63.0 °F 57.0 °F 81% 29.83 in 10.0 mi South 10.4 mph - N/A   Overcast
3:54 PM 64.4 °F 57.2 °F 77% 29.84 in 10.0 mi South 13.8 mph 21.9 mph N/A   Overcast
4:54 PM 63.0 °F 57.0 °F 81% 29.83 in 10.0 mi South 13.8 mph - N/A   Overcast
5:54 PM 63.0 °F 57.9 °F 84% 29.83 in 10.0 mi South 12.7 mph - N/A   Overcast
6:54 PM 62.1 °F 57.9 °F 86% 29.84 in 10.0 mi South 12.7 mph - N/A   Mostly Cloudy
7:54 PM 63.0 °F 57.9 °F 84% 29.85 in 10.0 mi South 10.4 mph - N/A   Mostly Cloudy
8:54 PM 62.1 °F 57.9 °F 86% 29.84 in 10.0 mi South 10.4 mph - N/A   Mostly Cloudy
9:01 PM 62.6 °F 57.2 °F 82% 29.85 in 10.0 mi South 11.5 mph - N/A   Mostly Cloudy
9:16 PM 62.6 °F 57.2 °F 82% 29.84 in 10.0 mi South 10.4 mph - N/A   Scattered Clouds
9:54 PM 63.0 °F 57.9 °F 84% 29.84 in 10.0 mi South 9.2 mph - N/A   Mostly Cloudy
10:54 PM 64.0 °F 59.0 °F 84% 29.83 in 10.0 mi SSW 10.4 mph - N/A   Scattered Clouds
11:54 PM 64.0 °F 60.1 °F 87% 29.82 in 10.0 mi SSW 12.7 mph - N/A   Mostly Cloudy